| time (UTC) | temp F | wind direction | speed knots | gust knots | rain 1hr in | rain 24hr in | rain mn in | humidity % | barometer mb |
| 20260506191121 | 88 | 194 | 1.7 | 3.5 | 0.00 | 0.00 | 0.00 | 66 | 1010.7 |
| 20260506190121 | 88 | 210 | 1.7 | 2.6 | 0.00 | 0.00 | 0.00 | 65 | 1010.7 |
| 20260506185121 | 87 | 63 | 1.7 | 3.5 | 0.00 | 0.00 | 0.00 | 67 | 1010.8 |
| 20260506184124 | 86 | 109 | 1.7 | 3.5 | 0.00 | 0.00 | 0.00 | 69 | 1010.9 |
| 20260506183121 | 87 | 64 | 1.7 | 3.5 | 0.00 | 0.00 | 0.00 | 69 | 1011.0 |
| 20260506182125 | 86 | 142 | 1.7 | 3.5 | 0.00 | 0.00 | 0.00 | 70 | 1011.0 |
| 20260506181121 | 84 | 137 | 0.9 | 1.7 | 0.00 | 0.00 | 0.00 | 74 | 1011.2 |
| 20260506180121 | 82 | 195 | 1.7 | 3.5 | 0.00 | 0.00 | 0.00 | 76 | 1011.2 |
| 20260506175121 | 83 | 192 | 1.7 | 3.5 | 0.00 | 0.00 | 0.00 | 76 | 1011.1 |
| 20260506174121 | 82 | 124 | 1.7 | 3.5 | 0.00 | 0.00 | 0.00 | 79 | 1011.2 |
| 20260506173121 | 81 | 161 | 1.7 | 2.6 | 0.00 | 0.00 | 0.00 | 78 | 1011.2 |
| 20260506172121 | 82 | 119 | 1.7 | 2.6 | 0.00 | 0.00 | 0.00 | 78 | 1011.2 |
| 20260506171142 | 81 | 155 | 1.7 | 3.5 | 0.00 | 0.00 | 0.00 | 79 | 1011.3 |
| 20260506170124 | 81 | 165 | 1.7 | 3.5 | 0.00 | 0.00 | 0.00 | 78 | 1011.3 |
| 20260506165121 | 81 | 53 | 1.7 | 3.5 | 0.00 | 0.00 | 0.00 | 79 | 1011.3 |
| 20260506164142 | 81 | 79 | 1.7 | 3.5 | 0.00 | 0.00 | 0.00 | 80 | 1011.2 |
| 20260506163121 | 81 | 171 | 1.7 | 4.3 | 0.00 | 0.00 | 0.00 | 79 | 1011.2 |
| 20260506162121 | 81 | 146 | 1.7 | 2.6 | 0.00 | 0.00 | 0.00 | 81 | 1011.2 |
| 20260506161121 | 81 | 186 | 1.7 | 2.6 | 0.00 | 0.00 | 0.00 | 82 | 1011.2 |
| 20260506160121 | 81 | 170 | 0.9 | 2.6 | 0.00 | 0.00 | 0.00 | 82 | 1011.1 |
| 20260506155121 | 79 | 176 | 1.7 | 3.5 | 0.00 | 0.00 | 0.00 | 85 | 1011.1 |
| 20260506154125 | 79 | 191 | 0.0 | 1.7 | 0.00 | 0.00 | 0.00 | 86 | 1010.9 |
| 20260506153121 | 78 | 174 | 0.9 | 1.7 | 0.00 | 0.00 | 0.00 | 87 | 1010.9 |
| 20260506152121 | 78 | 180 | 0.9 | 1.7 | 0.00 | 0.00 | 0.00 | 86 | 1010.8 |
| 20260506151121 | 78 | 111 | 0.9 | 1.7 | 0.00 | 0.00 | 0.00 | 87 | 1010.7 |
| 20260506150121 | 77 | 209 | 0.0 | 1.7 | 0.00 | 0.00 | 0.00 | 88 | 1010.7 |
| 20260506145121 | 77 | 109 | 0.0 | 1.7 | 0.00 | 0.00 | 0.00 | 89 | 1010.8 |
| 20260506144121 | 77 | 97 | 0.0 | 1.7 | 0.00 | 0.00 | 0.00 | 89 | 1010.7 |
| 20260506143126 | 77 | 349 | 0.9 | 1.7 | 0.00 | 0.00 | 0.00 | 89 | 1010.5 |
| 20260506142126 | 77 | 164 | 0.9 | 2.6 | 0.00 | 0.00 | 0.00 | 89 | 1010.4 |
| 20260506141122 | 77 | 172 | 0.9 | 1.7 | 0.00 | 0.00 | 0.00 | 89 | 1010.3 |
| 20260506140123 | 77 | 116 | 0.9 | 2.6 | 0.00 | 0.00 | 0.00 | 89 | 1010.3 |
| 20260506135121 | 77 | 140 | 0.9 | 3.5 | 0.00 | 0.00 | 0.00 | 89 | 1010.1 |
| 20260506134121 | 77 | 115 | 0.9 | 3.5 | 0.00 | 0.00 | 0.00 | 89 | 1010.0 |
| 20260506133121 | 77 | 140 | 1.7 | 2.6 | 0.00 | 0.00 | 0.00 | 89 | 1009.9 |
| 20260506132127 | 77 | 179 | 0.9 | 3.5 | 0.00 | 0.00 | 0.00 | 90 | 1009.9 |
| 20260506131142 | 76 | 174 | 1.7 | 3.5 | 0.00 | 0.00 | 0.00 | 91 | 1009.8 |
| 20260506130142 | 76 | 168 | 1.7 | 3.5 | 0.00 | 0.00 | 0.00 | 92 | 1009.8 |
| 20260506125122 | 76 | 144 | 1.7 | 2.6 | 0.00 | 0.00 | 0.00 | 92 | 1009.8 |
| 20260506124121 | 75 | 110 | 0.9 | 2.6 | 0.00 | 0.00 | 0.00 | 92 | 1009.8 |
| 20260506123121 | 75 | 147 | 0.9 | 2.6 | 0.00 | 0.00 | 0.00 | 92 | 1009.9 |
| 20260506122121 | 75 | 134 | 0.9 | 1.7 | 0.00 | 0.00 | 0.00 | 92 | 1009.9 |
| 20260506121121 | 75 | 169 | 0.9 | 1.7 | 0.00 | 0.00 | 0.00 | 92 | 1009.9 |
| 20260506120142 | 75 | 141 | 0.9 | 3.5 | 0.00 | 0.00 | 0.00 | 92 | 1009.9 |
| 20260506115121 | 75 | 168 | 0.0 | 1.7 | 0.00 | 0.00 | 0.00 | 92 | 1009.8 |
| 20260506114142 | 75 | 140 | 0.9 | 2.6 | 0.00 | 0.00 | 0.00 | 92 | 1009.7 |
| 20260506113122 | 75 | 166 | 0.0 | 1.7 | 0.00 | 0.00 | 0.00 | 91 | 1009.7 |
| 20260506112121 | 75 | 178 | 1.7 | 2.6 | 0.00 | 0.00 | 0.00 | 91 | 1009.7 |
| 20260506111142 | 75 | 178 | 0.9 | 1.7 | 0.00 | 0.00 | 0.00 | 91 | 1009.7 |
| 20260506110121 | 76 | 158 | 0.9 | 2.6 | 0.00 | 0.00 | 0.00 | 91 | 1009.7 |
| 20260506105121 | 76 | 175 | 0.9 | 2.6 | 0.00 | 0.00 | 0.00 | 91 | 1009.6 |
| 20260506104121 | 76 | 186 | 0.9 | 2.6 | 0.00 | 0.00 | 0.00 | 91 | 1009.6 |
| 20260506103124 | 76 | 156 | 0.9 | 3.5 | 0.00 | 0.00 | 0.00 | 90 | 1009.5 |
| 20260506102121 | 76 | 174 | 0.9 | 2.6 | 0.00 | 0.00 | 0.00 | 90 | 1009.6 |
| 20260506101121 | 76 | 141 | 0.9 | 3.5 | 0.00 | 0.00 | 0.00 | 90 | 1009.6 |
| 20260506100121 | 76 | 203 | 0.9 | 2.6 | 0.00 | 0.00 | 0.00 | 90 | 1009.5 |
| 20260506095121 | 76 | 184 | 0.0 | 2.6 | 0.00 | 0.00 | 0.00 | 90 | 1009.6 |
| 20260506094121 | 76 | 183 | 0.9 | 2.6 | 0.00 | 0.00 | 0.00 | 90 | 1009.6 |
| 20260506093121 | 76 | 181 | 1.7 | 4.3 | 0.00 | 0.00 | 0.00 | 90 | 1009.4 |
| 20260506092121 | 76 | 186 | 1.7 | 4.3 | 0.00 | 0.00 | 0.00 | 89 | 1009.4 |
| 20260506091121 | 76 | 186 | 1.7 | 5.2 | 0.00 | 0.00 | 0.00 | 89 | 1009.5 |
| 20260506090125 | 76 | 211 | 0.9 | 3.5 | 0.00 | 0.00 | 0.00 | 89 | 1009.5 |
| 20260506085121 | 76 | 167 | 1.7 | 4.3 | 0.00 | 0.00 | 0.00 | 89 | 1009.5 |
| 20260506084121 | 76 | 178 | 1.7 | 3.5 | 0.00 | 0.00 | 0.00 | 89 | 1009.5 |
| 20260506083121 | 76 | 180 | 1.7 | 6.1 | 0.00 | 0.00 | 0.00 | 89 | 1009.5 |
| 20260506082143 | 76 | 158 | 1.7 | 3.5 | 0.00 | 0.00 | 0.00 | 89 | 1009.5 |
| 20260506081142 | 76 | 208 | 2.6 | 5.2 | 0.00 | 0.00 | 0.00 | 89 | 1009.6 |
| 20260506080121 | 76 | 187 | 1.7 | 3.5 | 0.00 | 0.00 | 0.00 | 89 | 1009.6 |
| 20260506073121 | 76 | 164 | 1.7 | 3.5 | 0.00 | 0.00 | 0.00 | 89 | 1009.7 |
| 20260506072121 | 77 | 164 | 1.7 | 3.5 | 0.00 | 0.00 | 0.00 | 89 | 1009.8 |
| 20260506071143 | 77 | 178 | 0.9 | 2.6 | 0.00 | 0.00 | 0.00 | 89 | 1009.8 |
| 20260506070122 | 77 | 189 | 1.7 | 4.3 | 0.00 | 0.00 | 0.00 | 89 | 1009.8 |
| 20260506062121 | 77 | 175 | 1.7 | 3.5 | 0.00 | 0.00 | 0.00 | 89 | 1009.8 |
| 20260506061121 | 77 | 183 | 1.7 | 3.5 | 0.00 | 0.00 | 0.00 | 89 | 1009.8 |
| 20260506060122 | 77 | 162 | 1.7 | 3.5 | 0.00 | 0.00 | 0.00 | 88 | 1009.8 |
| 20260506051126 | 77 | 179 | 2.6 | 4.3 | 0.00 | 0.00 | 0.00 | 88 | 1009.7 |
| 20260506050121 | 77 | 120 | 2.6 | 4.3 | 0.00 | 0.00 | 0.00 | 88 | 1009.8 |
| 20260506044121 | 77 | 99 | 1.7 | 5.2 | 0.00 | 0.00 | 0.00 | 88 | 1009.9 |
| 20260506043121 | 77 | 172 | 1.7 | 2.6 | 0.00 | 0.00 | 0.00 | 87 | 1009.7 |
| 20260506042121 | 77 | 169 | 1.7 | 4.3 | 0.00 | 0.00 | 0.00 | 87 | 1009.8 |
| 20260506041121 | 78 | 155 | 2.6 | 3.5 | 0.00 | 0.00 | 0.00 | 87 | 1009.7 |
| 20260506040122 | 78 | 165 | 1.7 | 4.3 | 0.00 | 0.00 | 0.00 | 87 | 1009.7 |
| 20260506035147 | 78 | 162 | 1.7 | 3.5 | 0.00 | 0.00 | 0.00 | 87 | 1009.7 |
| 20260506034121 | 78 | 163 | 2.6 | 5.2 | 0.00 | 0.00 | 0.00 | 86 | 1009.6 |
| 20260506033122 | 78 | 138 | 2.6 | 4.3 | 0.00 | 0.00 | 0.00 | 86 | 1009.5 |
| 20260506032122 | 78 | 160 | 2.6 | 4.3 | 0.00 | 0.00 | 0.00 | 85 | 1009.6 |
| 20260506031121 | 79 | 145 | 2.6 | 5.2 | 0.00 | 0.00 | 0.00 | 84 | 1009.5 |
| 20260506030121 | 79 | 113 | 3.5 | 6.1 | 0.00 | 0.00 | 0.00 | 83 | 1009.5 |
| 20260506025121 | 80 | 144 | 3.5 | 5.2 | 0.00 | 0.00 | 0.00 | 82 | 1009.3 |
| 20260506024121 | 80 | 194 | 3.5 | 4.3 | 0.00 | 0.00 | 0.00 | 82 | 1009.3 |
| 20260506023126 | 81 | 110 | 2.6 | 4.3 | 0.00 | 0.00 | 0.00 | 81 | 1009.3 |
| 20260506022121 | 81 | 80 | 2.6 | 3.5 | 0.00 | 0.00 | 0.00 | 79 | 1009.3 |
| 20260506021121 | 82 | 135 | 2.6 | 3.5 | 0.00 | 0.00 | 0.00 | 77 | 1009.1 |
| 20260506020122 | 82 | 126 | 2.6 | 4.3 | 0.00 | 0.00 | 0.00 | 76 | 1009.1 |
| 20260506015121 | 83 | 125 | 2.6 | 5.2 | 0.00 | 0.00 | 0.00 | 73 | 1009.0 |
| 20260506014122 | 83 | 147 | 1.7 | 3.5 | 0.00 | 0.00 | 0.00 | 72 | 1008.9 |
| 20260506013121 | 83 | 164 | 1.7 | 2.6 | 0.00 | 0.00 | 0.00 | 71 | 1008.8 |
| 20260506012126 | 84 | 163 | 1.7 | 3.5 | 0.00 | 0.00 | 0.00 | 71 | 1008.7 |
| 20260506011121 | 84 | 189 | 1.7 | 4.3 | 0.00 | 0.00 | 0.00 | 70 | 1008.6 |
| 20260506010121 | 85 | 111 | 1.7 | 3.5 | 0.00 | 0.00 | 0.00 | 69 | 1008.6 |
| 20260506005122 | 85 | 107 | 1.7 | 3.5 | 0.00 | 0.00 | 0.00 | 68 | 1008.5 |
| 20260506004121 | 86 | 161 | 1.7 | 2.6 | 0.00 | 0.00 | 0.00 | 67 | 1008.6 |
| 20260506003121 | 86 | 159 | 2.6 | 4.3 | 0.00 | 0.00 | 0.00 | 65 | 1008.5 |
| 20260506002121 | 87 | 167 | 1.7 | 3.5 | 0.00 | 0.00 | 0.00 | 64 | 1008.5 |
| 20260506001121 | 88 | 193 | 1.7 | 3.5 | 0.00 | 0.00 | 0.00 | 64 | 1008.4 |
| 20260506000125 | 88 | 165 | 0.9 | 1.7 | 0.00 | 0.00 | 0.00 | 62 | 1008.4 |
| 20260505235121 | 89 | 166 | 0.9 | 3.5 | 0.00 | 0.00 | 0.00 | 61 | 1008.3 |
| 20260505234143 | 90 | 203 | 1.7 | 3.5 | 0.00 | 0.00 | 0.00 | 60 | 1008.4 |
| 20260505233121 | 90 | 172 | 0.9 | 3.5 | 0.00 | 0.00 | 0.00 | 60 | 1008.4 |
| 20260505232122 | 90 | 181 | 0.9 | 3.5 | 0.00 | 0.00 | 0.00 | 61 | 1008.3 |
| 20260505231121 | 88 | 155 | 0.9 | 2.6 | 0.00 | 0.00 | 0.00 | 62 | 1008.3 |
| 20260505230122 | 89 | 153 | 2.6 | 4.3 | 0.00 | 0.00 | 0.00 | 59 | 1008.3 |
| 20260505225121 | 93 | 179 | 0.9 | 3.5 | 0.00 | 0.00 | 0.00 | 56 | 1008.4 |
| 20260505224122 | 89 | 177 | 1.7 | 3.5 | 0.00 | 0.00 | 0.00 | 60 | 1008.3 |
| 20260505223121 | 87 | 152 | 1.7 | 3.5 | 0.00 | 0.00 | 0.00 | 64 | 1008.4 |
| 20260505222121 | 87 | 171 | 1.7 | 3.5 | 0.00 | 0.00 | 0.00 | 63 | 1008.5 |
| 20260505221121 | 88 | 183 | 1.7 | 3.5 | 0.00 | 0.00 | 0.00 | 61 | 1008.5 |
| 20260505220121 | 88 | 194 | 1.7 | 3.5 | 0.00 | 0.00 | 0.00 | 61 | 1008.5 |
| 20260505215121 | 89 | 202 | 1.7 | 5.2 | 0.00 | 0.00 | 0.00 | 60 | 1008.6 |
| 20260505214121 | 87 | 169 | 1.7 | 4.3 | 0.00 | 0.00 | 0.00 | 63 | 1008.7 |
| 20260505213121 | 87 | 194 | 2.6 | 5.2 | 0.00 | 0.00 | 0.00 | 62 | 1008.8 |
| 20260505212122 | 87 | 154 | 2.6 | 4.3 | 0.00 | 0.00 | 0.00 | 63 | 1008.9 |
| 20260505211122 | 88 | 121 | 2.6 | 3.5 | 0.00 | 0.00 | 0.00 | 61 | 1009.0 |
| 20260505210126 | 89 | 189 | 1.7 | 3.5 | 0.00 | 0.00 | 0.00 | 60 | 1009.1 |
| 20260505205122 | 90 | 181 | 2.6 | 4.3 | 0.00 | 0.00 | 0.00 | 59 | 1009.1 |
| 20260505204121 | 89 | 145 | 2.6 | 4.3 | 0.00 | 0.00 | 0.00 | 60 | 1009.2 |
| 20260505203121 | 89 | 214 | 1.7 | 3.5 | 0.00 | 0.00 | 0.00 | 61 | 1009.4 |
| 20260505202142 | 89 | 196 | 1.7 | 4.3 | 0.00 | 0.00 | 0.00 | 62 | 1009.5 |
| 20260505201121 | 88 | 220 | 1.7 | 4.3 | 0.00 | 0.00 | 0.00 | 61 | 1009.5 |
| 20260505200121 | 90 | 198 | 1.7 | 3.5 | 0.00 | 0.00 | 0.00 | 60 | 1009.5 |
| 20260505195121 | 87 | 122 | 1.7 | 3.5 | 0.00 | 0.00 | 0.00 | 63 | 1009.5 |
| 20260505194125 | 89 | 177 | 1.7 | 3.5 | 0.00 | 0.00 | 0.00 | 61 | 1009.6 |
| 20260505193122 | 90 | 178 | 1.7 | 2.6 | 0.00 | 0.00 | 0.00 | 61 | 1009.6 |
| 20260505192121 | 88 | 177 | 1.7 | 3.5 | 0.00 | 0.00 | 0.00 | 61 | 1009.8 |